Regional Weather Roundup
Issued by NWS

Home | Current Version | Previous Version | Graphics & Text | Print | Product List | Glossary Off
Versions: 1 2 3 4 5 6 7 8 9 10 11 12 13 14 15 16 17 18 19 20 21 22 23 24 25 26 27 28 29 30 31 32 33 34 35 36 37 38 39 40 41 42 43 44 45 46 47 48 49 50

000
ASUS44 KMEG 260510
RWRTN
TENNESSEE HOURLY STATE WEATHER ROUNDUP
NATIONAL WEATHER SERVICE MEMPHIS TN
1200 AM CDT SUN MAR 26 2017

TNZ002-004-019-021-049-052-054-088>092-260600-
WEST TENNESSEE

CITY           SKY/WX    TMP DP  RH WIND       PRES   REMARKS
MEMPHIS INTL   PTCLDY    59  58  96 S7        29.92F
NWS MEMPHIS      N/A     60 N/A N/A MISG        N/A
JACKSON        PTCLDY    60  56  86 S9        29.94S
DYERSBURG      HVY RAIN  58  56  93 SE6       29.93F FOG
SOMERVILLE     CLOUDY    61  57  88 S12       29.93S
BOLIVAR        CLOUDY    57  55  94 SE9       29.94F
PARIS          CLEAR     57  54  88 S8        29.94F
HUNTINGDON     CLOUDY    59  55  88 S9        29.93F
SAVANNAH       CLOUDY    59  57  94 S3        29.97S
$$

TNZ008-025-027-028-033-062-065-066-260600-
NORTH MIDDLE TENNESSEE

CITY           SKY/WX    TMP DP  RH WIND       PRES   REMARKS
NASHVILLE      LGT RAIN  59  56  89 SE10      29.98F
PORTLAND       CLOUDY    59  57  94 S16       30.00F
CLARKSVILLE    LGT RAIN  61  55  81 S9        29.96F
SMYRNA         LGT RAIN  58  57  97 S9        30.02F
COOKEVILLE     CLOUDY    57  57 100 S10       30.05S FOG
GALLATIN       CLOUDY    59  57  94 VRB5G12   30.04F FOG
CROSSVILLE     CLOUDY    57  53  86 SW3       30.07F
$$

TNZ061-075-076-078-094-096-097-260600-
SOUTH MIDDLE TENNESSEE

CITY           SKY/WX    TMP DP  RH WIND       PRES   REMARKS
TULLAHOMA      CLOUDY    55  55 100 SE5       30.04F
WINCHESTER     CLOUDY    55  55 100 E7        30.05F
MCMINNVILLE    MOCLDY    57  57 100 CALM      30.06S
COLUMBIA       CLOUDY   N/A N/A N/A S5        29.98F
SHELBYVILLE    CLOUDY   N/A N/A N/A MISG      30.02F
$$

TNZ017-018-042-046-047-260600-
NORTHEAST TENNESSEE

CITY           SKY/WX    TMP DP  RH WIND       PRES   REMARKS
TRI CITIES     PTCLDY    61  46  57 SE5       30.13F
ELIZABETHTON     N/A     59  48  67 E5        30.13F
$$

TNZ012-013-036-069-073-074-260600-
CENTRAL EAST TENNESSEE

CITY           SKY/WX    TMP DP  RH WIND       PRES   REMARKS
KNOXVILLE      MOCLDY    68  46  45 SE9       30.05F
OAK RIDGE      CLOUDY    65  48  54 CALM      30.07F
DOWNTOWN KNOXV CLOUDY    57  52  82 CALM      30.06F
GATLINBURG     CLEAR     63  45  51 S5        30.06F
MORRISTOWN     PTCLDY    63  48  59 SE5       30.08F
JACKSBORO      CLOUDY    61  50  67 CALM      30.09F
$$

TNZ083-085-099-260600-
SOUTHEAST TENNESSEE

CITY           SKY/WX    TMP DP  RH WIND       PRES   REMARKS
CHATTANOOGA    RAIN      60  60 100 S8        30.08R
$$

SKY/WX REPORTED AS FAIR MEANS FEW OR NO CLOUDS BELOW
12 THOUSAND FEET.




USA.gov is the U.S. government's official web portal to all federal, state and local government web resources and services.